Date String (YYYY-MM-DD hh:mm:ss) UTC,Instrument flags,absolute air pressure of the measurement (hPa),sample flow rate (lpm),inlet stack bypass flow (lpm),air temperature of the measurement (°C),ambient temperature measured by the external sensor (°C),aerosol sample conditioner tube jacket temperature (°C),OPC LED temperature (°C),internal box temperature (°C),relative humidity of the measurement (%),span deviation,mass concentration of particles derived from Lorenz-Mie calculation of OPC scattering (μg/m³),mass concentration of particles derived from Lorenz-Mie calculation of OPC scattering (μg/m³),mass concentration of particles derived from Lorenz-Mie calculation of OPC scattering (μg/m³)
DateTimeUTC,F1_M11,P_M11,Q1_M11,Q2_M11,T1_M11,T2_M11,T3_M11,T4_M11,T5_M11,U1_M11,ZSPAN_M11,X0_M11,X2_M11,X1_M11
2023-08-15 19:00:00,SystemResetWarning,0837.6,5.00,000.00,028.6,026.0,000.0,036.9,030.1,22.6,0001.8,0012.83,0004.96,0004.33
2023-08-15 19:01:00,SystemResetWarning,0837.6,5.00,000.00,028.6,026.4,000.0,037.0,030.3,22.3,0001.6,0012.78,0004.94,0004.30
2023-08-15 19:02:00,SystemResetWarning,0837.6,5.00,000.00,028.6,026.7,000.0,037.0,030.4,21.9,0000.3,0011.56,0004.88,0004.28
2023-08-15 19:03:00,SystemResetWarning,0837.5,5.00,000.00,028.7,027.1,000.0,037.0,030.4,21.5,0000.0,0011.05,0004.86,0004.28
2023-08-15 19:04:00,SystemResetWarning,0837.5,5.00,000.00,028.7,027.3,000.0,037.1,030.5,21.8,0000.6,0012.22,0004.90,0004.28
2023-08-15 19:05:00,SystemResetWarning,0837.6,4.98,000.00,028.8,027.0,000.0,037.0,030.5,21.2,0000.0,0012.40,0004.96,0004.30
2023-08-15 19:06:00,SystemResetWarning,0837.5,5.00,000.00,028.7,025.3,000.0,036.9,030.1,21.3,0000.0,0012.07,0005.00,0004.33
2023-08-15 19:07:00,SystemResetWarning,0837.4,5.01,000.00,028.6,024.7,000.0,036.8,029.9,21.5,0000.0,0011.98,0005.05,0004.37
2023-08-15 19:08:00,SystemResetWarning,0837.4,5.01,000.00,028.6,025.0,000.0,036.8,029.9,21.8,0000.0,0012.06,0005.16,0004.42
2023-08-15 19:09:00,SystemResetWarning,0837.5,4.99,000.00,028.5,025.4,000.0,036.8,030.0,21.3,0000.0,0012.63,0005.28,0004.47
2023-08-15 19:10:00,SystemResetWarning,0837.4,5.00,000.00,028.5,025.8,000.0,036.9,030.1,21.6,0000.0,0013.71,0005.31,0004.49
2023-08-15 19:11:00,SystemResetWarning,0837.5,5.00,000.00,028.6,026.3,000.0,036.9,030.2,22.6,0000.0,0014.43,0005.34,0004.51
2023-08-15 19:12:00,SystemResetWarning,0837.5,5.01,000.00,028.6,026.6,000.0,036.9,030.3,23.1,0000.0,0014.47,0005.35,0004.52
2023-08-15 19:13:00,SystemResetWarning,0837.5,5.00,000.00,028.7,027.0,000.0,037.0,030.4,22.9,0000.0,0014.24,0005.38,0004.54
2023-08-15 19:14:00,SystemResetWarning,0837.5,5.00,000.00,028.7,027.2,000.0,037.0,030.5,22.5,0000.0,0014.63,0005.43,0004.57
2023-08-15 19:15:00,SystemResetWarning,0837.5,5.00,000.00,028.8,027.5,000.0,037.0,030.6,21.7,0000.0,0013.98,0005.46,0004.60
2023-08-15 19:16:00,SystemResetWarning,0837.5,4.98,000.00,028.8,026.5,000.0,036.9,030.4,20.7,0000.0,0014.09,0005.43,0004.59
2023-08-15 19:17:00,SystemResetWarning,0837.4,5.00,000.00,028.7,024.9,000.0,036.8,030.1,21.0,0000.0,0014.30,0005.44,0004.59
2023-08-15 19:18:00,SystemResetWarning,0837.4,5.01,000.00,028.6,024.8,000.0,036.8,030.0,20.6,0000.0,0014.38,0005.41,0004.59
2023-08-15 19:19:00,SystemResetWarning,0837.4,5.01,000.00,028.6,025.2,000.0,036.8,029.9,21.7,0000.0,0014.83,0005.34,0004.57
2023-08-15 19:20:00,SystemResetWarning,0837.4,4.99,000.00,028.5,025.5,000.0,036.8,030.0,20.5,0000.0,0015.63,0005.31,0004.57
2023-08-15 19:21:00,SystemResetWarning,0837.4,5.00,000.00,028.5,026.0,000.0,036.9,030.1,20.1,0000.0,0015.04,0005.35,0004.58
2023-08-15 19:22:00,SystemResetWarning,0837.4,5.01,000.00,028.6,026.4,000.0,036.9,030.2,20.0,0000.0,0014.27,0005.39,0004.61
2023-08-15 19:23:00,SystemResetWarning,0837.4,4.99,000.00,028.6,026.8,000.0,036.9,030.4,20.1,0000.4,0014.39,0005.44,0004.63
2023-08-15 19:24:00,SystemResetWarning,0837.4,4.99,000.00,028.7,027.1,000.0,037.0,030.5,19.8,0000.4,0015.09,0005.44,0004.64
2023-08-15 19:25:00,SystemResetWarning,0837.3,5.00,000.00,028.7,027.3,000.0,037.0,030.5,19.5,-000.0,0014.79,0005.36,0004.61
2023-08-15 19:26:00,SystemResetWarning,0837.3,5.00,000.00,028.7,026.6,000.0,036.9,030.4,19.5,-000.2,0015.18,0005.30,0004.58
2023-08-15 19:27:00,SystemResetWarning,0837.2,5.00,000.00,028.7,025.0,000.0,036.8,030.1,19.7,-000.1,0015.78,0005.27,0004.57
2023-08-15 19:28:00,SystemResetWarning,0837.2,5.02,000.00,028.6,024.7,000.0,036.8,029.9,19.7,0000.2,0015.71,0005.23,0004.52
2023-08-15 19:29:00,SystemResetWarning,0837.2,5.00,000.00,028.5,025.1,000.0,036.8,029.9,19.7,0000.1,0015.20,0005.18,0004.47
2023-08-15 19:30:00,SystemResetWarning,0837.2,4.99,000.00,028.5,025.4,000.0,036.8,029.9,20.2,0000.5,0014.98,0005.17,0004.43
2023-08-15 19:31:00,SystemResetWarning,0837.2,5.00,000.00,028.5,025.9,000.0,036.9,030.1,20.4,0000.1,0013.94,0005.10,0004.40
2023-08-15 19:32:00,SystemResetWarning,0837.2,5.00,000.00,028.6,026.3,000.0,036.9,030.2,20.4,0000.0,0013.52,0005.03,0004.36
2023-08-15 19:33:00,SystemResetWarning,0837.2,5.00,000.00,028.6,026.7,000.0,036.9,030.3,20.3,0000.0,0013.57,0004.99,0004.33
2023-08-15 19:34:00,SystemResetWarning,0837.2,5.00,000.00,028.6,027.0,000.0,036.9,030.4,20.3,0000.0,0013.24,0004.97,0004.32
2023-08-15 19:35:00,SystemResetWarning,0837.2,5.00,000.00,028.7,027.3,000.0,037.0,030.5,20.4,0000.0,0013.23,0005.00,0004.30
2023-08-15 19:36:00,SystemResetWarning,0837.2,5.00,000.00,028.8,027.4,000.0,037.0,030.6,19.9,0000.0,0012.96,0004.98,0004.27
2023-08-15 19:37:00,SystemResetWarning,0837.2,4.98,000.00,028.7,026.2,000.0,036.9,030.3,19.4,0000.0,0012.18,0004.98,0004.26
2023-08-15 19:38:00,SystemResetWarning,0837.2,5.01,000.00,028.7,024.8,000.0,036.8,030.0,19.3,0000.0,0011.76,0005.01,0004.27
2023-08-15 19:39:00,SystemResetWarning,0837.2,5.01,000.00,028.6,024.9,000.0,036.8,029.9,19.3,0000.0,0012.00,0005.04,0004.30
2023-08-15 19:40:00,SystemResetWarning,0837.2,5.00,000.00,028.5,025.2,000.0,036.8,029.9,19.5,0000.0,0012.04,0005.03,0004.31
2023-08-15 19:41:00,SystemResetWarning,0837.2,5.00,000.00,028.5,025.6,000.0,036.8,030.0,19.4,0000.0,0012.29,0005.03,0004.32
2023-08-15 19:42:00,SystemResetWarning,0837.2,5.00,000.00,028.5,026.1,000.0,036.9,030.1,19.4,0000.0,0012.60,0005.02,0004.31
2023-08-15 19:43:00,SystemResetWarning,0837.2,5.01,000.00,028.6,026.5,000.0,036.9,030.3,19.5,0000.0,0012.90,0005.03,0004.29
2023-08-15 19:44:00,SystemResetWarning,0837.1,4.99,000.00,028.6,026.8,000.0,036.9,030.3,18.3,0000.0,0013.06,0004.99,0004.27
2023-08-15 19:45:00,SystemResetWarning,0837.2,4.99,000.00,028.7,027.1,000.0,037.0,030.4,18.1,0000.0,0013.35,0004.95,0004.25
2023-08-15 19:46:00,SystemResetWarning,0837.1,5.00,000.00,028.7,027.4,000.0,037.0,030.5,18.2,0000.0,0013.45,0004.91,0004.25
2023-08-15 19:47:00,SystemResetWarning,0837.1,5.00,000.00,028.8,027.2,000.0,037.0,030.5,18.2,0000.0,0014.02,0004.92,0004.26
2023-08-15 19:48:00,SystemResetWarning,0837.0,5.00,000.00,028.7,025.5,000.0,036.9,030.1,17.8,0000.0,0014.57,0004.92,0004.25
2023-08-15 19:49:00,SystemResetWarning,0837.0,5.01,000.00,028.6,024.6,000.0,036.8,029.9,17.9,0000.0,0014.60,0004.90,0004.24
2023-08-15 19:50:00,SystemResetWarning,0837.0,5.01,000.00,028.6,025.0,000.0,036.8,029.9,18.7,0000.0,0014.49,0004.83,0004.20
2023-08-15 19:51:00,SystemResetWarning,0837.0,5.00,000.00,028.5,025.3,000.0,036.8,029.9,18.6,0000.0,0014.62,0004.83,0004.18
2023-08-15 19:52:00,SystemResetWarning,0837.0,5.01,000.00,028.5,025.8,000.0,036.8,030.0,18.9,0000.0,0014.55,0004.82,0004.17
2023-08-15 19:53:00,SystemResetWarning,0837.1,5.00,000.00,028.5,026.2,000.0,036.9,030.2,18.9,0000.0,0014.47,0004.84,0004.18
2023-08-15 19:54:00,SystemResetWarning,0837.1,5.00,000.00,028.6,026.6,000.0,036.9,030.3,18.9,0000.0,0014.85,0004.83,0004.18
2023-08-15 19:55:00,SystemResetWarning,0837.1,5.00,000.00,028.6,026.9,000.0,036.9,030.4,17.9,0000.0,0014.81,0004.86,0004.19
2023-08-15 19:56:00,SystemResetWarning,0837.1,4.99,000.00,028.7,027.2,000.0,037.0,030.5,17.6,0000.0,0014.51,0004.91,0004.19
2023-08-15 19:57:00,SystemResetWarning,0837.1,5.00,000.00,028.7,027.2,000.0,037.0,030.5,17.9,0000.0,0013.84,0004.92,0004.18
2023-08-15 19:58:00,SystemResetWarning,0837.0,4.99,000.00,028.7,025.7,000.0,036.9,030.2,18.3,0000.0,0013.98,0004.96,0004.18
2023-08-15 19:59:00,SystemResetWarning,0836.9,5.01,000.00,028.6,024.6,000.0,036.8,029.9,18.3,0000.0,0014.54,0004.97,0004.19
